Year,Month,Day,Hour,Minute,Value (Times are PST for temperature in C)
2020,04,13,08,04,7.00
2020,04,13,08,05,7.10
2020,04,13,08,06,7.30
2020,04,13,08,07,7.40
2020,04,13,08,08,7.50
2020,04,13,08,09,7.60
2020,04,13,08,10,7.80
2020,04,13,08,11,7.80
2020,04,13,08,12,7.90
2020,04,13,08,13,8.00
2020,04,13,08,14,8.10
2020,04,13,08,15,8.10
2020,04,13,08,16,8.20
2020,04,13,08,17,8.20
2020,04,13,08,18,8.30
2020,04,13,08,19,8.30
2020,04,13,08,20,8.40
2020,04,13,08,21,8.40
2020,04,13,08,22,8.50
2020,04,13,08,23,8.50
2020,04,13,08,24,8.60
2020,04,13,08,25,8.60
2020,04,13,08,26,8.70
2020,04,13,08,27,8.70
2020,04,13,08,28,8.70
2020,04,13,08,29,8.70
2020,04,13,08,30,8.70
2020,04,13,08,31,8.70
2020,04,13,08,32,8.70
2020,04,13,08,33,8.70
2020,04,13,08,34,8.70
2020,04,13,08,35,8.70
2020,04,13,08,36,8.70
2020,04,13,08,37,8.70
2020,04,13,08,38,8.80
2020,04,13,08,39,8.90
2020,04,13,08,40,9.00
2020,04,13,08,41,9.00
2020,04,13,08,42,9.00
2020,04,13,08,43,9.10
2020,04,13,08,44,9.10
2020,04,13,08,45,9.10
2020,04,13,08,46,9.10
2020,04,13,08,47,9.10
2020,04,13,08,48,9.10
2020,04,13,08,49,9.20
2020,04,13,08,50,9.20
2020,04,13,08,51,9.20
2020,04,13,08,52,9.10
2020,04,13,08,53,9.10
2020,04,13,08,54,9.20
2020,04,13,08,55,9.20
2020,04,13,08,56,9.20
2020,04,13,08,57,9.20
2020,04,13,08,58,9.20
2020,04,13,08,59,9.20
2020,04,13,09,00,9.20
2020,04,13,09,01,9.20
2020,04,13,09,02,9.20
2020,04,13,09,03,9.20
2020,04,13,09,04,9.20
2020,04,13,09,05,9.20
2020,04,13,09,06,9.30
2020,04,13,09,07,9.30
2020,04,13,09,08,9.40
2020,04,13,09,09,9.40
2020,04,13,09,10,9.50
2020,04,13,09,11,9.50
2020,04,13,09,12,9.60
2020,04,13,09,13,9.60
2020,04,13,09,14,9.60
2020,04,13,09,15,9.60
2020,04,13,09,16,9.60
2020,04,13,09,17,9.60
2020,04,13,09,18,9.60
2020,04,13,09,19,9.70
2020,04,13,09,20,9.70
2020,04,13,09,21,9.70
2020,04,13,09,22,9.70
2020,04,13,09,23,9.70
2020,04,13,09,24,9.70
2020,04,13,09,25,9.70
2020,04,13,09,26,9.70
2020,04,13,09,27,9.70
2020,04,13,09,28,9.70
2020,04,13,09,29,9.70
2020,04,13,09,30,9.70
2020,04,13,09,31,9.80
2020,04,13,09,32,9.90
2020,04,13,09,33,9.90
2020,04,13,09,34,9.90
2020,04,13,09,35,10.10
2020,04,13,09,36,10.10
2020,04,13,09,37,10.10
2020,04,13,09,38,10.10
2020,04,13,09,39,10.10
2020,04,13,09,40,10.10
2020,04,13,09,41,10.10
2020,04,13,09,42,10.10
2020,04,13,09,43,10.10
2020,04,13,09,44,10.00
2020,04,13,09,45,9.90
2020,04,13,09,46,9.90
2020,04,13,09,47,9.90
2020,04,13,09,48,9.90
2020,04,13,09,49,9.90
2020,04,13,09,50,10.00
2020,04,13,09,51,10.10
2020,04,13,09,52,10.10
2020,04,13,09,53,10.20
2020,04,13,09,54,10.20
2020,04,13,09,55,10.10
2020,04,13,09,56,10.10
2020,04,13,09,57,10.10
2020,04,13,09,58,10.10
2020,04,13,09,59,10.10
2020,04,13,10,00,10.20
2020,04,13,10,01,10.20
2020,04,13,10,02,10.20
2020,04,13,10,03,10.20
2020,04,13,10,04,10.20
2020,04,13,10,05,10.20
2020,04,13,10,06,10.20
2020,04,13,10,07,10.20
2020,04,13,10,08,10.30
2020,04,13,10,09,10.30
2020,04,13,10,10,10.40
2020,04,13,10,11,10.40
2020,04,13,10,12,10.50
2020,04,13,10,13,10.60
2020,04,13,10,14,10.60
2020,04,13,10,15,10.60
2020,04,13,10,16,10.70
2020,04,13,10,17,10.70
2020,04,13,10,18,10.80
2020,04,13,10,19,10.80
2020,04,13,10,20,10.80
2020,04,13,10,21,10.80
2020,04,13,10,22,10.80
2020,04,13,10,23,10.80
2020,04,13,10,24,10.90
2020,04,13,10,25,10.90
2020,04,13,10,26,10.90
2020,04,13,10,27,11.00
2020,04,13,10,28,11.10
2020,04,13,10,29,11.10
2020,04,13,10,30,11.10
2020,04,13,10,31,11.10
2020,04,13,10,32,11.20
2020,04,13,10,33,11.40
2020,04,13,10,34,11.50
2020,04,13,10,35,11.60
2020,04,13,10,36,11.70
2020,04,13,10,37,11.80
2020,04,13,10,38,11.80
2020,04,13,10,39,11.90
2020,04,13,10,40,12.10
2020,04,13,10,41,12.20
2020,04,13,10,42,12.30
2020,04,13,10,43,12.50
2020,04,13,10,44,12.50
2020,04,13,10,45,12.60
2020,04,13,10,46,12.60
2020,04,13,10,47,12.60
2020,04,13,10,48,12.60
2020,04,13,10,49,12.50
2020,04,13,10,50,12.50
2020,04,13,10,51,12.60
2020,04,13,10,52,12.60
2020,04,13,10,53,12.80
2020,04,13,10,54,12.90
2020,04,13,10,55,13.00
2020,04,13,10,56,13.00
2020,04,13,10,57,13.10
2020,04,13,10,58,13.10
2020,04,13,10,59,13.10
2020,04,13,11,00,13.10
2020,04,13,11,01,13.20
2020,04,13,11,02,13.20
2020,04,13,11,03,13.30
2020,04,13,11,04,13.40
2020,04,13,11,05,13.50
2020,04,13,11,06,13.60
2020,04,13,11,07,13.70
2020,04,13,11,08,13.70
2020,04,13,11,09,13.80
2020,04,13,11,10,13.80
2020,04,13,11,11,13.80
2020,04,13,11,12,13.90
2020,04,13,11,13,13.80
2020,04,13,11,14,13.80
2020,04,13,11,15,13.80
2020,04,13,11,16,13.80
2020,04,13,11,17,13.70
2020,04,13,11,18,13.70
2020,04,13,11,19,13.60
2020,04,13,11,20,13.60
2020,04,13,11,21,13.60
2020,04,13,11,22,13.50
2020,04,13,11,23,13.60
2020,04,13,11,24,13.70
2020,04,13,11,25,13.70
2020,04,13,11,26,13.70
2020,04,13,11,27,13.70
2020,04,13,11,28,13.70
2020,04,13,11,29,13.70
2020,04,13,11,30,13.70
2020,04,13,11,31,13.70
2020,04,13,11,32,13.70
2020,04,13,11,33,13.90
2020,04,13,11,34,13.90
2020,04,13,11,35,14.00
2020,04,13,11,36,14.10
2020,04,13,11,37,14.20
2020,04,13,11,38,14.20
2020,04,13,11,39,14.20
2020,04,13,11,40,14.10
2020,04,13,11,41,13.90
2020,04,13,11,42,13.70
2020,04,13,11,43,13.80
2020,04,13,11,44,13.80
2020,04,13,11,45,13.90
2020,04,13,11,46,13.90
2020,04,13,11,47,14.00
2020,04,13,11,48,14.10
2020,04,13,11,49,14.20
2020,04,13,11,50,14.20
2020,04,13,11,51,14.20
2020,04,13,11,52,14.20
2020,04,13,11,53,14.00
2020,04,13,11,54,13.90
2020,04,13,11,55,13.80
2020,04,13,11,56,13.80
2020,04,13,11,57,13.90
2020,04,13,11,58,13.90
2020,04,13,11,59,14.00
2020,04,13,12,00,14.00
2020,04,13,12,01,14.00
2020,04,13,12,02,14.00
2020,04,13,12,03,14.10
2020,04,13,12,04,14.10
2020,04,13,12,05,14.20
2020,04,13,12,06,14.30
2020,04,13,12,07,14.40
2020,04,13,12,08,14.50
2020,04,13,12,09,14.60
2020,04,13,12,10,14.70
2020,04,13,12,11,14.70
2020,04,13,12,12,14.70
2020,04,13,12,13,14.80
2020,04,13,12,14,15.00
2020,04,13,12,15,15.20
2020,04,13,12,16,15.40
2020,04,13,12,17,15.40
2020,04,13,12,18,15.30
2020,04,13,12,19,15.20
2020,04,13,12,20,15.20
2020,04,13,12,21,15.20
2020,04,13,12,22,15.20
2020,04,13,12,23,15.30
2020,04,13,12,24,15.30
2020,04,13,12,25,15.30
2020,04,13,12,26,15.10
2020,04,13,12,27,15.00
2020,04,13,12,28,14.90
2020,04,13,12,29,14.70
2020,04,13,12,30,14.70
2020,04,13,12,31,14.70
2020,04,13,12,32,14.60
2020,04,13,12,33,14.50
2020,04,13,12,34,14.50
2020,04,13,12,35,14.60
2020,04,13,12,36,14.70
2020,04,13,12,37,14.60
2020,04,13,12,38,14.60
2020,04,13,12,39,14.60
2020,04,13,12,40,14.50
2020,04,13,12,41,14.50
2020,04,13,12,42,14.50
2020,04,13,12,43,14.40
2020,04,13,12,44,14.30
2020,04,13,12,45,14.30
2020,04,13,12,46,14.20
2020,04,13,12,47,14.20
2020,04,13,12,48,14.30
2020,04,13,12,49,14.50
2020,04,13,12,50,14.60
2020,04,13,12,51,14.70
2020,04,13,12,52,14.90
2020,04,13,12,53,15.10
2020,04,13,12,54,15.20
2020,04,13,12,55,15.40
2020,04,13,12,56,15.40
2020,04,13,12,57,15.50
2020,04,13,12,58,15.60
2020,04,13,12,59,15.60
2020,04,13,13,00,15.60
2020,04,13,13,01,15.60
2020,04,13,13,02,15.50
2020,04,13,13,03,15.50
2020,04,13,13,04,15.40
2020,04,13,13,05,15.40
2020,04,13,13,06,15.40
2020,04,13,13,07,15.50
2020,04,13,13,08,15.50
2020,04,13,13,09,15.50
2020,04,13,13,10,15.40
2020,04,13,13,11,15.20
2020,04,13,13,12,14.90
2020,04,13,13,13,14.80
2020,04,13,13,14,14.70
2020,04,13,13,15,14.60
2020,04,13,13,16,14.50
2020,04,13,13,17,14.60
2020,04,13,13,18,14.60
2020,04,13,13,19,14.70
2020,04,13,13,20,14.80
2020,04,13,13,21,14.80
2020,04,13,13,22,15.00
2020,04,13,13,23,15.10
2020,04,13,13,24,15.20
2020,04,13,13,25,15.10
2020,04,13,13,26,15.10
2020,04,13,13,27,15.10
2020,04,13,13,28,15.10
2020,04,13,13,29,15.10
2020,04,13,13,30,15.10
2020,04,13,13,31,15.10
2020,04,13,13,32,15.20
2020,04,13,13,33,15.30
2020,04,13,13,34,15.40
2020,04,13,13,35,15.50
2020,04,13,13,36,15.50
2020,04,13,13,37,15.40
2020,04,13,13,38,15.30
2020,04,13,13,39,15.30
2020,04,13,13,40,15.20
2020,04,13,13,41,15.20
2020,04,13,13,42,15.10
2020,04,13,13,43,15.10
2020,04,13,13,44,15.10
2020,04,13,13,45,15.00
2020,04,13,13,46,15.00
2020,04,13,13,47,14.90
2020,04,13,13,48,14.80
2020,04,13,13,49,14.60
2020,04,13,13,50,14.50
2020,04,13,13,51,14.30
2020,04,13,13,52,14.20
2020,04,13,13,53,14.20
2020,04,13,13,54,14.20
2020,04,13,13,55,14.10
2020,04,13,13,56,14.00
2020,04,13,13,57,14.00
2020,04,13,13,58,14.00
2020,04,13,13,59,14.00
2020,04,13,14,00,14.00
2020,04,13,14,01,14.00
2020,04,13,14,02,14.10
2020,04,13,14,03,14.20
2020,04,13,14,04,14.10
2020,04,13,14,05,13.90
2020,04,13,14,06,13.70
2020,04,13,14,07,13.60
2020,04,13,14,08,13.60
2020,04,13,14,09,13.60
2020,04,13,14,10,13.60
2020,04,13,14,11,13.40
2020,04,13,14,12,13.20
2020,04,13,14,13,13.20
2020,04,13,14,14,13.10
2020,04,13,14,15,13.10
2020,04,13,14,16,13.00
2020,04,13,14,17,13.10
2020,04,13,14,18,13.10
2020,04,13,14,19,13.20
2020,04,13,14,20,13.10
2020,04,13,14,21,13.10
2020,04,13,14,22,13.00
2020,04,13,14,23,12.90
2020,04,13,14,24,12.60
2020,04,13,14,25,12.50
2020,04,13,14,26,12.40
2020,04,13,14,27,12.40
2020,04,13,14,28,12.30
2020,04,13,14,29,12.30
2020,04,13,14,30,12.40
2020,04,13,14,31,12.50
2020,04,13,14,32,12.40
2020,04,13,14,33,12.40
2020,04,13,14,34,12.40
2020,04,13,14,35,12.40
2020,04,13,14,36,12.40
2020,04,13,14,37,12.30
2020,04,13,14,38,12.30
2020,04,13,14,39,12.30
2020,04,13,14,40,12.30
2020,04,13,14,41,12.30
2020,04,13,14,42,12.40
2020,04,13,14,43,12.60
2020,04,13,14,44,12.80
2020,04,13,14,45,12.90
2020,04,13,14,46,13.10
2020,04,13,14,47,13.20
2020,04,13,14,48,13.30
2020,04,13,14,49,13.30
2020,04,13,14,50,13.30
2020,04,13,14,51,13.30
2020,04,13,14,52,13.30
2020,04,13,14,53,13.30
2020,04,13,14,54,13.30
2020,04,13,14,55,13.20
2020,04,13,14,56,13.30
2020,04,13,14,57,13.30
2020,04,13,14,58,13.30
2020,04,13,14,59,13.30
2020,04,13,15,00,13.30
2020,04,13,15,01,13.30
2020,04,13,15,02,13.20
2020,04,13,15,03,13.20
2020,04,13,15,04,13.00
2020,04,13,15,05,12.80
2020,04,13,15,06,12.80
2020,04,13,15,07,12.70
2020,04,13,15,08,12.70
2020,04,13,15,09,12.80
2020,04,13,15,10,12.80
2020,04,13,15,11,12.80
2020,04,13,15,12,13.00
2020,04,13,15,13,13.00
2020,04,13,15,14,12.90
2020,04,13,15,15,12.80
2020,04,13,15,16,12.90
2020,04,13,15,17,12.90
2020,04,13,15,18,12.90
2020,04,13,15,19,12.90
2020,04,13,15,20,12.90
2020,04,13,15,21,12.90
2020,04,13,15,22,12.90
2020,04,13,15,23,13.00
2020,04,13,15,24,13.10
2020,04,13,15,25,13.10
2020,04,13,15,26,13.20
2020,04,13,15,27,13.30
2020,04,13,15,28,13.30
2020,04,13,15,29,13.40
2020,04,13,15,30,13.50
2020,04,13,15,31,13.60
2020,04,13,15,32,13.70
2020,04,13,15,33,13.70
2020,04,13,15,34,13.80
2020,04,13,15,35,13.90
2020,04,13,15,36,13.90
2020,04,13,15,37,13.90
2020,04,13,15,38,13.80
2020,04,13,15,39,13.70
2020,04,13,15,40,13.70
2020,04,13,15,41,13.60
2020,04,13,15,42,13.50
2020,04,13,15,43,13.60
2020,04,13,15,44,13.60
2020,04,13,15,45,13.70
2020,04,13,15,46,13.70
2020,04,13,15,47,13.70
2020,04,13,15,48,13.70
2020,04,13,15,49,13.80
2020,04,13,15,50,13.90
2020,04,13,15,51,13.90
2020,04,13,15,52,13.90
2020,04,13,15,53,13.90
2020,04,13,15,54,14.00
2020,04,13,15,55,14.10
2020,04,13,15,56,14.20
2020,04,13,15,57,14.20
2020,04,13,15,58,14.30
2020,04,13,15,59,14.30
2020,04,13,16,00,14.30
2020,04,13,16,01,14.20
2020,04,13,16,02,14.00
2020,04,13,16,03,13.90
2020,04,13,16,04,13.80
2020,04,13,16,05,13.80
2020,04,13,16,06,13.80
2020,04,13,16,07,13.80
2020,04,13,16,08,13.80
2020,04,13,16,09,13.90
2020,04,13,16,10,14.00
2020,04,13,16,11,14.10
2020,04,13,16,12,14.10
2020,04,13,16,13,14.20
2020,04,13,16,14,14.20
2020,04,13,16,15,14.30
2020,04,13,16,16,14.20
2020,04,13,16,17,14.30
2020,04,13,16,18,14.30
2020,04,13,16,19,14.30
2020,04,13,16,20,14.20
2020,04,13,16,21,14.20
2020,04,13,16,22,14.20
2020,04,13,16,23,14.20
2020,04,13,16,24,14.20
2020,04,13,16,25,14.30
2020,04,13,16,26,14.40
2020,04,13,16,27,14.40
2020,04,13,16,28,14.40
2020,04,13,16,29,14.30
2020,04,13,16,30,14.20
2020,04,13,16,31,14.10
2020,04,13,16,32,14.00
2020,04,13,16,33,13.90
2020,04,13,16,34,14.00
2020,04,13,16,35,14.00
2020,04,13,16,36,14.00
2020,04,13,16,37,14.00
2020,04,13,16,38,14.10
2020,04,13,16,39,14.20
2020,04,13,16,40,14.20
2020,04,13,16,41,14.20
2020,04,13,16,42,14.20
2020,04,13,16,43,14.20
2020,04,13,16,44,14.20
2020,04,13,16,45,14.20
2020,04,13,16,46,14.30
2020,04,13,16,47,14.30
2020,04,13,16,48,14.20
2020,04,13,16,49,14.20
2020,04,13,16,50,14.20
2020,04,13,16,51,14.20
2020,04,13,16,52,14.10
2020,04,13,16,53,14.00
2020,04,13,16,54,13.90
2020,04,13,16,55,13.80
2020,04,13,16,56,13.60
2020,04,13,16,57,13.50
2020,04,13,16,58,13.40
2020,04,13,16,59,13.30
2020,04,13,17,00,13.30
2020,04,13,17,01,13.20
2020,04,13,17,02,13.20
2020,04,13,17,03,13.10
2020,04,13,17,04,13.10
2020,04,13,17,05,13.20
2020,04,13,17,06,13.20
2020,04,13,17,07,13.20
2020,04,13,17,08,13.30
2020,04,13,17,09,13.30
2020,04,13,17,10,13.30
2020,04,13,17,11,13.30
2020,04,13,17,12,13.30
2020,04,13,17,13,13.30
2020,04,13,17,14,13.30
2020,04,13,17,15,13.40
2020,04,13,17,16,13.40
2020,04,13,17,17,13.30
2020,04,13,17,18,13.30
2020,04,13,17,19,13.20
2020,04,13,17,20,13.20
2020,04,13,17,21,13.20
2020,04,13,17,22,13.10
2020,04,13,17,23,13.10
2020,04,13,17,24,13.00
2020,04,13,17,25,12.90
2020,04,13,17,26,12.90
2020,04,13,17,27,12.90
2020,04,13,17,28,12.80
2020,04,13,17,29,12.80
2020,04,13,17,30,12.90
2020,04,13,17,31,12.90
2020,04,13,17,32,12.90
2020,04,13,17,33,12.80
2020,04,13,17,34,12.70
2020,04,13,17,35,12.70
2020,04,13,17,36,12.60
2020,04,13,17,37,12.50
2020,04,13,17,38,12.40
2020,04,13,17,39,12.40
2020,04,13,17,40,12.40
2020,04,13,17,41,12.30
2020,04,13,17,42,12.20
2020,04,13,17,43,12.20
2020,04,13,17,44,12.30
2020,04,13,17,45,12.20
2020,04,13,17,46,12.20
2020,04,13,17,47,12.30
2020,04,13,17,48,12.30
2020,04,13,17,49,12.20
2020,04,13,17,50,12.20
2020,04,13,17,51,12.10
2020,04,13,17,52,12.20
2020,04,13,17,53,12.20
2020,04,13,17,54,12.20
2020,04,13,17,55,12.30
2020,04,13,17,56,12.30
2020,04,13,17,57,12.30
2020,04,13,17,58,12.30
2020,04,13,17,59,12.30
2020,04,13,18,00,12.30
2020,04,13,18,01,12.30
2020,04,13,18,02,12.30
2020,04,13,18,03,12.30
2020,04,13,18,04,12.30
2020,04,13,18,05,12.30
2020,04,13,18,06,12.30
2020,04,13,18,07,12.40
2020,04,13,18,08,12.50
2020,04,13,18,09,12.60
2020,04,13,18,10,12.70
2020,04,13,18,11,12.80
2020,04,13,18,12,12.90
2020,04,13,18,13,13.00
2020,04,13,18,14,13.10
2020,04,13,18,15,13.20
2020,04,13,18,16,13.30
2020,04,13,18,17,13.40
2020,04,13,18,18,13.50
2020,04,13,18,19,13.70
2020,04,13,18,20,13.80
2020,04,13,18,21,13.90
2020,04,13,18,22,14.00
2020,04,13,18,23,14.10
2020,04,13,18,24,14.20
2020,04,13,18,25,14.40
2020,04,13,18,26,14.50
2020,04,13,18,27,14.60
2020,04,13,18,28,14.60
2020,04,13,18,29,14.80
2020,04,13,18,30,14.90
2020,04,13,18,31,15.00
2020,04,13,18,32,15.00
2020,04,13,18,33,15.10
2020,04,13,18,34,15.20
2020,04,13,18,35,15.30
2020,04,13,18,36,15.30
2020,04,13,18,37,15.30
2020,04,13,18,38,15.40
2020,04,13,18,39,15.40
2020,04,13,18,40,15.40
2020,04,13,18,41,15.50
2020,04,13,18,42,15.50
2020,04,13,18,43,15.50
2020,04,13,18,44,15.50
2020,04,13,18,45,15.50
2020,04,13,18,46,15.60
2020,04,13,18,47,15.60
2020,04,13,18,48,15.60
2020,04,13,18,49,15.60
2020,04,13,18,50,15.60
2020,04,13,18,51,15.60
2020,04,13,18,52,15.50
2020,04,13,18,53,15.50
2020,04,13,18,54,15.50
2020,04,13,18,55,15.50
2020,04,13,18,56,15.50
2020,04,13,18,57,15.50
2020,04,13,18,58,15.50
2020,04,13,18,59,15.50
2020,04,13,19,00,15.50
2020,04,13,19,01,15.50
2020,04,13,19,02,15.50
2020,04,13,19,03,15.40
2020,04,13,19,04,15.40
2020,04,13,19,05,15.40
2020,04,13,19,06,15.40
2020,04,13,19,07,15.40
2020,04,13,19,08,15.40
2020,04,13,19,09,15.30
2020,04,13,19,10,15.30
2020,04,13,19,11,15.30
2020,04,13,19,12,15.30
2020,04,13,19,13,15.30
2020,04,13,19,14,15.30
2020,04,13,19,15,15.30
2020,04,13,19,16,15.30
2020,04,13,19,17,15.30
2020,04,13,19,18,15.30
2020,04,13,19,19,15.20
2020,04,13,19,20,15.20
2020,04,13,19,21,15.20
2020,04,13,19,22,15.10
2020,04,13,19,23,15.10
2020,04,13,19,24,15.10
2020,04,13,19,25,15.10
2020,04,13,19,26,15.10
2020,04,13,19,27,15.10
2020,04,13,19,28,15.10
2020,04,13,19,29,15.10
2020,04,13,19,30,15.10
2020,04,13,19,31,15.00
2020,04,13,19,32,15.00
2020,04,13,19,33,15.00
2020,04,13,19,34,14.90
2020,04,13,19,35,14.90
2020,04,13,19,36,14.90
2020,04,13,19,37,14.80
2020,04,13,19,38,14.80
2020,04,13,19,39,14.80
2020,04,13,19,40,14.80
2020,04,13,19,41,14.70
2020,04,13,19,42,14.70
2020,04,13,19,43,14.60
2020,04,13,19,44,14.60
2020,04,13,19,45,14.60
2020,04,13,19,46,14.60
2020,04,13,19,47,14.60
2020,04,13,19,48,14.60
2020,04,13,19,49,14.60
2020,04,13,19,50,14.60
2020,04,13,19,51,14.60
2020,04,13,19,52,14.60
2020,04,13,19,53,14.60
2020,04,13,19,54,14.60
2020,04,13,19,55,14.60
